"Pseudo-MPEC" for JAT11Ig

Created 2023 Mar 22 14:22:08 UT using Find_Orb

Click here for an explanation of pseudo-MPECs

 
 Astrometry: 
     JAT11Ig*!C2023 03 17A(w+xXO;G*;c!AstrometryUB7P9NfJUFZud9Dmn?vt'rN1gOo]8W84
     JAT11Ig !C2023 03 17JlZ;CsCcCydXNNqrBek9-ye[d,03iH8\(SYUQvS*`1Xi(+1mv)`^W84
     JAT11Ig !C2023 03 17\K?!W*4GRL]5ZpD1lw;-redacted;.Mv62a]/DCmnf[LppM#v0l0W84
     JAT11Ig !C2023 03 17Z6u4j3vrcg*JJmnH:O'0BQZI.13AmkqtYa-UYqBuG1joLse-)b^dW84
     JAT11Ig |C2023 03 191muEGp88g2q)t'EIZ@Jld?r]+%Am=_Xd4#f*$L(P/WK!clickZ,B807
     JAT11Ig |C2023 03 19+R`J$x/]?VT$5?ll+vbck91GJhere]I+CEjO+:S)$j4DforZ#=Lp807
     JAT11Ig |C2023 03 19#2f%#YkK*NNiKsexplanationYXM-+Q@uSwmYGo\Z57o-S5jB`cU807

Station data:
(807) Cerro Tololo Observatory, La Serena  (S30.169133 W70.805900)  Chile.
   Observer R. Holmes. 0.61-m f/6.5 astrograph + CCD.
(W84) Cerro Tololo-DECam  (S30.169594 W70.806420)  Chile.  Observer F. Valdes.
    Measurer S. Deen. 4.0-m reflector + CCD.

Orbital elements:  JAT11Ig
   Perihelion 2022 Nov 10.40846 +/- 134 TT =  9:48:11 (JD 2459893.90846)
Epoch 2023 Mar 19.0 TT = JDT 2460022.5   Earth MOID: 0.4827      AutoNEOCP
M  57.84549022 +/- 80               (J2000 ecliptic)
n   0.44983900 +/- 0.225            Peri.  309.08071 +/- 70
a   1.68693354 +/- 0.563            Node   175.76690 +/- 9
e   0.1628692 +/- 0.196             Incl.   32.63062 +/- 11
P   2.19/800.27d           H 20.48  G  0.15   U 11.7  SR
q 1.41218395 +/- 0.271    Q 1.96168313 +/- 1.59
From 7 observations 2023 Mar. 17-19; mean residual 0".35
Residuals in arcseconds: 
230317 W84  .27+  .19-    230317 W84  .01-  .90+    230319 807  .13-  .11+    
230317 W84  .07-  .02+    230319 807  .28+  .13+    
230317 W84  .19-  .72-    230319 807  .15-  .25-    

Ephemerides (geocentric):
Date (UTC) HH   RA             Dec           delta  r     elong  mag " sig PA
---- --------  ------------   ------------  ------ ------ -----  --- --------
2023 03 22 14  15 23 05.150   +12 31 02.77  .75414 1.5845 129.2 22.2  209 108
2023 03 22 15  15 23 05.954   +12 32 51.37  .75406 1.5846 129.2 22.2  213 108
2023 03 22 16  15 23 06.753   +12 34 39.96  .75399 1.5847 129.2 22.2  218 108
2023 03 22 17  15 23 07.547   +12 36 28.57  .75391 1.5848 129.2 22.2  222 108
2023 03 22 18  15 23 08.336   +12 38 17.18  .75383 1.5849 129.3 22.2  226 108
2023 03 22 19  15 23 09.119   +12 40 05.79  .75376 1.5850 129.3 22.2  231 108
2023 03 22 20  15 23 09.897   +12 41 54.41  .75368 1.5851 129.3 22.2  236 108
2023 03 22 21  15 23 10.670   +12 43 43.04  .75361 1.5851 129.3 22.2  240 108
2023 03 22 22  15 23 11.438   +12 45 31.67  .75354 1.5852 129.4 22.2  245 108
2023 03 22 23  15 23 12.201   +12 47 20.30  .75346 1.5853 129.4 22.2  250 108
2023 03 23 00  15 23 12.958   +12 49 08.94  .75339 1.5854 129.4 22.2  254 108
2023 03 23 01  15 23 13.710   +12 50 57.58  .75332 1.5855 129.4 22.2  259 108
2023 03 23 02  15 23 14.457   +12 52 46.22  .75324 1.5856 129.4 22.2  264 108
2023 03 23 03  15 23 15.199   +12 54 34.87  .75317 1.5857 129.5 22.2  269 108
2023 03 23 04  15 23 15.935   +12 56 23.52  .75310 1.5858 129.5 22.2  274 108
2023 03 23 05  15 23 16.667   +12 58 12.18  .75303 1.5859 129.5 22.2  279 108
2023 03 23 06  15 23 17.393   +13 00 00.84  .75296 1.5859 129.5 22.2  284 108
2023 03 23 07  15 23 18.113   +13 01 49.50  .75289 1.5860 129.6 22.2  289 108
2023 03 23 08  15 23 18.829   +13 03 38.16  .75282 1.5861 129.6 22.2  294 108
2023 03 23 09  15 23 19.540   +13 05 26.83  .75275 1.5862 129.6 22.2  299 108
2023 03 23 10  15 23 20.245   +13 07 15.50  .75268 1.5863 129.6 22.2  305 108
2023 03 23 11  15 23 20.945   +13 09 04.17  .75261 1.5864 129.6 22.2  310 108
2023 03 23 12  15 23 21.639   +13 10 52.84  .75254 1.5865 129.7 22.2  315 107
2023 03 23 13  15 23 22.329   +13 12 41.52  .75247 1.5866 129.7 22.2  320 107
2023 03 23 14  15 23 23.013   +13 14 30.19  .75240 1.5867 129.7 22.2  326 107
2023 03 23 15  15 23 23.692   +13 16 18.87  .75233 1.5867 129.7 22.2  331 107
2023 03 23 16  15 23 24.366   +13 18 07.55  .75227 1.5868 129.7 22.2  337 107
2023 03 23 17  15 23 25.035   +13 19 56.23  .75220 1.5869 129.8 22.2  342 107
2023 03 23 18  15 23 25.699   +13 21 44.91  .75213 1.5870 129.8 22.2  348 107
2023 03 23 19  15 23 26.357   +13 23 33.59  .75207 1.5871 129.8 22.2  353 107
2023 03 23 20  15 23 27.010   +13 25 22.27  .75200 1.5872 129.8 22.2  359 107
2023 03 23 21  15 23 27.658   +13 27 10.95  .75194 1.5873 129.9 22.2  365 107
2023 03 23 22  15 23 28.300   +13 28 59.64  .75187 1.5874 129.9 22.2  370 107
2023 03 23 23  15 23 28.938   +13 30 48.32  .75181 1.5875 129.9 22.2  376 107
2023 03 24 00  15 23 29.570   +13 32 37.00  .75174 1.5875 129.9 22.2  382 107
2023 03 24 01  15 23 30.197   +13 34 25.68  .75168 1.5876 129.9 22.2  388 107
2023 03 24 02  15 23 30.818   +13 36 14.36  .75161 1.5877 130.0 22.2  394 107
2023 03 24 03  15 23 31.435   +13 38 03.04  .75155 1.5878 130.0 22.2  399 107
2023 03 24 04  15 23 32.046   +13 39 51.72  .75149 1.5879 130.0 22.2  405 107
2023 03 24 05  15 23 32.652   +13 41 40.40  .75142 1.5880 130.0 22.2  411 107
2023 03 24 06  15 23 33.253   +13 43 29.07  .75136 1.5881 130.0 22.2  417 107
2023 03 24 07  15 23 33.849   +13 45 17.75  .75130 1.5882 130.1 22.2  424 107
2023 03 24 08  15 23 34.439   +13 47 06.42  .75124 1.5883 130.1 22.2  430 107
2023 03 24 09  15 23 35.024   +13 48 55.09  .75118 1.5883 130.1 22.2  436 107
2023 03 24 10  15 23 35.604   +13 50 43.76  .75112 1.5884 130.1 22.2  442 107
2023 03 24 11  15 23 36.179   +13 52 32.43  .75106 1.5885 130.2 22.2  448 107
2023 03 24 12  15 23 36.748   +13 54 21.09  .75100 1.5886 130.2 22.2  455 107
2023 03 24 13  15 23 37.312   +13 56 09.75  .75094 1.5887 130.2 22.2  461 107